[TLELIST] Archives

 

[list_settings.list_name] Current TLEs

September 10th 2021 PDT

HST 1 20580U 90037B 21252.35171128 .00000751 00000-0 34425-4 0 9999 2 20580 28.4691 229.9169 0002446 243.4232 267.6585 15.09728095523680 ISS (ZARYA) 1 25544U 98067A 21253.35452546 .00002079 00000-0 46460-4 0 9999 2 25544 51.6436 281.5905 0003457 16.6931 163.7421 15.48620776301792 CXO 1 25867U 99040B 21255.38331638 .00000749 00000-0 00000-0 0 9990 2 25867 52.9504 251.4753 8448744 227.1723 0.7756 0.37806468 10766 ____________________________________________________________________ These 2-Line ...Continue Reading

[list_settings.list_name] Current TLEs

September 9th 2021 PDT

HST 1 20580U 90037B 21251.69284376 .00000743 00000-0 33940-4 0 9997 2 20580 28.4692 234.2771 0002463 235.9217 287.1030 15.09727393523588 ISS (ZARYA) 1 25544U 98067A 21252.18003037 .00001330 00000-0 32699-4 0 9994 2 25544 51.6447 287.3970 0003352 12.1752 96.0942 15.48611890301610 CXO 1 25867U 99040B 21255.38283372 .00000749 00000-0 00000+0 0 9990 2 25867 52.9503 251.4752 8448734 227.1725 0.7096 0.37806526 21905 ____________________________________________________________________ These 2-Line ...Continue Reading

[list_settings.list_name] Current TLEs

September 8th 2021 PDT

HST 1 20580U 90037B 21250.70125889 .00000691 00000-0 30775-4 0 9996 2 20580 28.4693 240.8391 0002498 224.5192 298.5403 15.09726074523433 ISS (ZARYA) 1 25544U 98067A 21251.34072397 .00001336 00000-0 32813-4 0 9990 2 25544 51.6450 291.5466 0003326 8.0690 97.9802 15.48608682301482 CXO 1 25867U 99040B 21252.73879959 .00000834 00000-0 00000-0 0 9994 2 25867 53.0304 251.6103 8447766 227.1534 0.7197 0.37814243 10769 ____________________________________________________________________ These 2-Line ...Continue Reading

[list_settings.list_name] Current TLEs

September 7th 2021 PDT

HST 1 20580U 90037B 21249.70968678 .00000692 00000-0 30813-4 0 9999 2 20580 28.4693 247.4010 0002529 213.3620 309.8065 15.09725097523288 ISS (ZARYA) 1 25544U 98067A 21249.97676126 .00002569 00000-0 55501-4 0 9994 2 25544 51.6454 298.2897 0003244 3.7159 53.2605 15.48608535301279 CXO 1 25867U 99040B 21250.09332627 .00000895 00000-0 00000-0 0 9994 2 25867 53.1306 251.7815 8446654 227.0925 0.6253 0.37814126 10741 ____________________________________________________________________ These 2-Line ...Continue Reading

[list_settings.list_name] Current TLEs

September 6th 2021 PDT

HST 1 20580U 90037B 21248.71810168 .00000679 00000-0 30051-4 0 9998 2 20580 28.4694 253.9630 0002563 202.2729 320.9371 15.09724039523137 ISS (ZARYA) 1 25544U 98067A 21249.46949571 .00002601 00000-0 56085-4 0 9990 2 25544 51.6451 300.7969 0003220 1.5252 105.5886 15.48605595301195 CXO 1 25867U 99040B 21250.09332627 .00000895 00000-0 00000-0 0 9994 2 25867 53.1306 251.7815 8446654 227.0925 0.6253 0.37814126 10741 ____________________________________________________________________ These 2-Line ...Continue Reading

[list_settings.list_name] Current TLEs

September 5th 2021 PDT

HST 1 20580U 90037B 21247.52145059 .00000667 00000-0 29304-4 0 9992 2 20580 28.4695 261.8820 0002608 188.9951 297.5161 15.09722801522954 ISS (ZARYA) 1 25544U 98067A 21248.17951969 .00002292 00000-0 50423-4 0 9997 2 25544 51.6456 307.1733 0003179 356.9369 113.8598 15.48596913300991 CXO 1 25867U 99040B 21250.09332627 .00000895 00000-0 00000-0 0 9994 2 25867 53.1306 251.7815 8446654 227.0925 0.6253 0.37814126 10741 ____________________________________________________________________ These 2-Line ...Continue Reading

[list_settings.list_name] Current TLEs

September 4th 2021 PDT

HST 1 20580U 90037B 21246.80101838 .00000660 00000-0 28921-4 0 9996 2 20580 28.4696 266.6495 0002637 181.2306 341.9686 15.09722107522841 ISS (ZARYA) 1 25544U 98067A 21247.52848604 .00002176 00000-0 48287-4 0 9992 2 25544 51.6451 310.3914 0003148 353.1564 85.7679 15.48592506300895 CXO 1 25867U 99040B 21247.44811910 .00000836 00000-0 00000-0 0 9991 2 25867 53.2088 251.9262 8443523 227.0363 0.6064 0.37807631 10748 ____________________________________________________________________ These 2-Line ...Continue Reading

[list_settings.list_name] Current TLEs

September 3rd 2021 PDT

HST 1 20580U 90037B 21245.80940900 .00000706 00000-0 31699-4 0 9993 2 20580 28.4697 273.2115 0002675 170.6348 352.4842 15.09721297522698 ISS (ZARYA) 1 25544U 98067A 21246.36984941 .00003100 00000-0 65296-4 0 9995 2 25544 51.6448 316.1187 0002983 351.4473 103.9145 15.48589773300717 CXO 1 25867U 99040B 21247.44811910 .00000836 00000-0 00000-0 0 9991 2 25867 53.2088 251.9262 8443523 227.0363 0.6064 0.37807631 10748 ____________________________________________________________________ These 2-Line ...Continue Reading

[list_settings.list_name] Current TLEs

September 2nd 2021 PDT

HST 1 20580U 90037B 21244.47668848 .00000792 00000-0 36924-4 0 9994 2 20580 28.4698 282.0309 0002739 156.6350 308.7943 15.09720182522496 ISS (ZARYA) 1 25544U 98067A 21245.40269671 .00004374 00000-0 88742-4 0 9990 2 25544 51.6443 320.8991 0003123 344.6606 115.3739 15.48588770300561 CXO 1 25867U 99040B 21247.44752561 .00000836 00000-0 00000-0 0 9997 2 25867 53.2088 251.9263 8443530 227.0363 0.5253 0.37807300 10738 ____________________________________________________________________ These 2-Line ...Continue Reading

[list_settings.list_name] Current TLEs

September 1st 2021 PDT

HST 1 20580U 90037B 21243.55412194 .00000860 00000-0 40986-4 0 9992 2 20580 28.4699 288.1360 0002785 147.1299 334.2203 15.09719549522352 ISS (ZARYA) 1 25544U 98067A 21244.43608225 .00004548 00000-0 91971-4 0 9995 2 25544 51.6441 325.6774 0003022 341.1133 126.5889 15.48580369300416 CXO 1 25867U 99040B 21244.80329788 .00000699 00000-0 00000-0 0 9992 2 25867 53.2663 252.0422 8439819 226.9951 0.6188 0.37805295 10731 ____________________________________________________________________ These 2-Line ...Continue Reading
  • This mailing list is a public mailing list - anyone may join or leave, at any time.
  • This mailing list is announce-only.

International Space Station (ISS) / Hubble Space Telescope (HST) / Chandra X-Ray Observatory Orbital Data via EMAIL

Privacy Policy:

Private list